This is the latest recevied weather packets stored in our database for station/object K7SKM. If no packets are shown the sender has not sent any weather packets the latest 10 day(s).
| Time | Temp. | Humidity | Pressure | Rain* | Wind** | Luminosity | Snow |
|---|---|---|---|---|---|---|---|
| 1777176129 | 12.78° C | 37% | 1013.6 hPa | 0 mm | - | 0 W/m² | - |
| 1777175828 | 12.78° C | 34% | 1013.6 hPa | 0 mm | - | 0 W/m² | - |
| 1777175523 | 12.78° C | 33% | 1013.6 hPa | 0 mm | - | 0 W/m² | - |
| 1777175222 | 13.33° C | 31% | 1013.4 hPa | 0 mm | - | 0 W/m² | - |
| 1777174920 | 13.33° C | 30% | 1013.6 hPa | 0 mm | - | 0 W/m² | - |
| 1777174616 | 13.89° C | 29% | 1013.5 hPa | 0 mm | - | 0 W/m² | - |
| 1777174310 | 13.89° C | 28% | 1013.6 hPa | 0 mm | - | 0 W/m² | - |
| 1777174005 | 14.44° C | 28% | 1013.6 hPa | 0 mm | - | 0 W/m² | - |
| 1777173703 | 15° C | 27% | 1013.4 hPa | 0 mm | - | 0 W/m² | - |
| 1777173397 | 15° C | 25% | 1013.5 hPa | 0 mm | - | 0 W/m² | - |
| 1777173092 | 15° C | 25% | 1013.6 hPa | 0 mm | - | 0 W/m² | - |
| 1777172789 | 15.56° C | 24% | 1013.5 hPa | 0 mm | - | 1 W/m² | - |
| 1777172487 | 15.56° C | 23% | 1013.4 hPa | 0 mm | - | 2 W/m² | - |
| 1777172182 | 15.56° C | 23% | 1013.5 hPa | 0 mm | - | 4 W/m² | - |
| 1777171878 | 16.11° C | 22% | 1013.6 hPa | 0 mm | - | 5 W/m² | - |
| 1777171574 | 16.11° C | 22% | 1013.3 hPa | 0 mm | - | 7 W/m² | - |
| 1777171270 | 16.11° C | 22% | 1013.5 hPa | 0 mm | - | 9 W/m² | - |
| 1777170969 | 16.11° C | 22% | 1013.5 hPa | 0 mm | - | 10 W/m² | - |
| 1777170664 | 16.67° C | 22% | 1013.4 hPa | 0 mm | - | 12 W/m² | - |
| 1777170361 | 16.67° C | 21% | 1013.4 hPa | 0 mm | - | 14 W/m² | - |
| 1777170058 | 16.67° C | 21% | 1013.6 hPa | 0 mm | - | 17 W/m² | - |
| 1777169755 | 16.67° C | 21% | 1013.3 hPa | 0 mm | - | 18 W/m² | - |
| 1777169452 | 17.22° C | 21% | 1013.5 hPa | 0 mm | - | 20 W/m² | - |
| 1777169151 | 17.22° C | 21% | 1013.5 hPa | 0 mm | - | 20 W/m² | - |
| 1777168847 | 17.22° C | 21% | 1013.4 hPa | 0 mm | - | 21 W/m² | - |
* Rain latest hour (hover to see other rain measurements)
** Current wind speed in m/s (hover to see current wind gust speed)